GEFSGL_500_meanwind_162.txt.gz
Wind_Speed
15 15 14 15 16 17 18 19 21 22 22 22 21 21 21 21 22 22 22 22 22 22 22 22 21 21 21 22 22 22 22 21 21 21 21 21 21 22 21 22 23 23 24
15 16 16 15 16 17 17 18 20 20 20 21 21 21 21 22 22 22 22 22 22 23 23 22 23 23 23 23 23 24 23 22 22 23 23 23 23 24 25 25 26 26 27
14 15 16 16 17 17 18 19 19 20 20 21 20 21 22 22 22 22 23 23 23 23 24 24 23 23 24 24 23 24 24 24 24 25 26 26 26 27 27 28 29 30 30
13 14 15 15 15 16 16 17 18 18 19 20 20 20 21 22 22 23 24 24 24 24 24 25 25 24 25 24 24 25 25 25 26 27 28 28 29 30 30 31 31 32 32
12 13 14 14 14 15 15 15 16 17 17 19 20 21 21 21 23 23 24 24 24 24 26 26 26 25 25 26 26 27 27 27 28 29 30 30 31 32 33 33 34 35 35
11 12 12 13 13 14 14 14 15 16 17 18 19 19 20 20 21 23 23 24 24 25 26 27 27 26 27 27 27 27 28 29 29 30 31 32 33 34 34 35 35 36 37
11 10 11 11 12 13 13 14 14 15 16 17 18 19 19 20 20 22 23 24 25 25 26 27 28 29 28 29 30 29 29 29 31 32 33 34 35 36 37 37 37 38 39
12 12 12 12 12 12 13 13 13 14 15 16 17 18 19 19 19 21 21 23 24 26 27 27 29 30 30 30 30 30 31 32 33 34 34 35 36 37 38 39 39 40 41
13 12 12 13 12 12 12 12 13 13 14 15 16 18 19 20 20 21 22 23 25 26 28 29 29 28 29 30 31 32 33 34 35 35 35 36 37 38 39 40 40 41 42
13 12 12 12 12 12 12 12 13 13 13 14 16 17 18 20 21 22 23 24 25 27 27 28 28 29 30 31 33 34 34 35 35 36 38 39 39 40 40 41 42 42 43
13 13 13 13 13 13 13 13 14 14 14 15 15 16 17 19 20 21 22 23 25 26 28 28 29 29 31 32 32 33 34 35 36 37 38 40 41 42 42 42 43 43 44
14 15 15 14 14 15 15 15 15 16 16 16 17 18 19 20 21 22 23 24 25 27 28 29 30 30 31 33 33 33 34 35 35 36 37 38 39 40 41 42 43 44 45
16 16 16 16 16 16 16 17 17 17 18 18 19 19 20 21 22 23 24 25 26 27 28 29 30 30 31 32 32 33 34 36 36 37 37 39 40 41 43 43 44 45 45
16 16 16 17 17 17 17 18 18 19 19 20 21 22 23 23 23 23 23 25 26 27 29 29 29 30 31 31 32 34 34 35 36 37 39 40 42 43 43 44 45 46 47
17 17 17 17 18 18 19 19 19 19 19 20 21 22 23 23 23 23 24 25 26 27 27 28 30 31 31 32 33 33 35 36 37 39 41 42 43 44 46 46 47 48 50
17 17 18 18 19 19 20 20 20 20 20 21 22 22 22 23 24 24 25 26 27 28 29 30 30 31 32 34 35 36 38 39 40 42 44 45 46 47 48 49 49 50 51
18 18 18 19 20 20 19 20 20 20 21 22 22 23 24 24 25 25 26 27 28 30 31 32 33 34 35 36 37 39 40 41 42 44 46 47 48 49 50 50 51 51 52
18 18 19 19 19 19 20 21 21 21 21 22 23 23 24 25 25 26 27 28 30 32 33 35 36 37 38 39 40 41 42 44 45 46 48 49 49 50 50 50 50 51 51
18 18 19 19 19 19 19 20 20 21 21 22 24 24 25 26 27 28 29 31 33 34 35 37 37 38 39 41 42 43 44 45 46 47 48 48 48 48 48 49 49 49 48
18 18 18 19 19 19 19 20 20 21 22 23 24 25 26 27 29 30 32 33 34 35 36 37 38 40 41 42 43 44 45 45 46 46 46 46 46 46 46 46 45 45 44
18 18 18 18 18 18 18 19 21 22 23 23 24 25 27 29 30 31 32 34 35 36 37 38 39 40 41 42 43 43 44 44 44 44 44 43 43 43 43 42 41 41 41
16 16 17 17 18 19 20 20 21 22 24 25 27 28 29 30 31 32 33 34 36 37 38 39 40 41 41 42 42 43 42 42 41 41 41 41 40 40 39 39 38 38 38
16 17 17 17 18 19 20 21 23 24 26 27 28 29 31 32 33 33 34 36 37 38 38 39 40 40 40 41 41 40 40 39 39 39 38 37 37 37 36 36 36 36 35
17 17 18 18 20 21 22 23 25 26 28 29 30 31 32 33 34 35 36 37 37 38 38 39 39 38 38 38 38 38 38 37 36 36 35 35 34 34 34 34 34 33 33
18 18 19 20 22 23 24 25 26 27 28 30 31 32 33 34 35 36 36 36 37 37 37 37 36 36 36 36 36 36 35 34 33 33 32 32 32 32 32 31 31 31 31
19 20 21 22 23 24 25 26 27 29 30 31 32 33 34 34 35 35 35 35 35 35 35 35 35 35 34 34 34 33 32 31 31 30 30 29 29 29 29 29 29 29 28

GEFSGL_500_meanwind_168.txt.gz
Wind_Speed
15 15 15 15 14 15 15 15 16 15 15 17 18 19 19 19 20 21 21 22 22 22 21 21 21 21 22 22 22 22 21 22 22 22 22 22 21 21 21 22 22 23 23
15 15 15 15 15 15 16 15 15 16 17 17 17 18 18 19 20 20 20 21 21 22 22 22 22 22 22 23 23 23 24 24 24 24 23 23 23 23 24 25 25 25 26
16 16 16 15 15 15 16 16 16 16 16 17 17 18 19 20 20 21 21 21 21 22 22 23 24 24 24 24 24 24 25 25 25 25 26 26 26 27 27 27 28 28 29
16 16 15 15 15 16 16 16 16 17 17 17 17 18 19 19 20 21 22 21 22 22 23 24 24 24 25 25 26 26 27 27 27 28 28 28 29 29 29 30 31 32 32
15 16 15 15 15 16 16 16 17 17 17 18 18 18 18 19 19 20 20 21 21 22 23 24 25 25 26 27 27 28 28 28 29 29 30 30 31 31 31 32 33 33 34
14 14 14 14 14 15 16 17 17 17 17 17 18 18 19 19 20 20 20 21 22 22 23 24 25 26 27 27 28 29 30 31 31 32 32 32 33 34 33 33 34 35 35
12 13 13 14 14 14 15 15 15 15 16 16 16 17 18 19 19 20 20 22 22 22 23 24 25 25 26 28 29 30 32 32 32 33 33 34 35 36 36 36 37 37 38
12 12 13 13 13 14 14 15 15 15 15 15 16 17 17 17 18 20 21 21 21 22 23 25 25 26 27 28 29 30 32 32 33 33 34 35 36 36 37 38 38 38 39
14 13 14 14 14 14 15 15 15 15 15 15 15 16 16 16 17 19 20 20 21 22 24 24 26 27 28 29 29 30 32 33 34 35 34 35 34 35 36 38 38 38 38
15 15 14 14 14 14 15 15 15 15 15 15 15 15 15 16 17 18 19 20 21 23 24 25 26 27 29 30 30 31 32 32 33 33 34 33 33 34 35 36 37 38 38
15 15 15 15 15 15 15 15 16 16 16 15 16 16 16 17 18 19 20 21 23 24 25 26 27 28 29 31 31 31 32 32 32 32 32 33 34 35 36 36 38 38 38
16 16 16 16 15 15 15 16 16 16 15 16 16 16 17 18 18 19 20 22 23 24 25 26 27 28 29 30 30 31 31 30 31 31 32 34 35 35 36 37 38 38 40
17 17 17 16 16 16 16 16 16 16 16 17 17 18 18 18 19 20 20 21 22 23 24 24 25 26 26 27 29 30 30 30 30 32 34 35 36 36 37 38 39 40 42
17 17 17 17 17 17 18 17 17 17 17 18 18 19 19 19 20 21 21 22 22 23 24 25 26 27 27 28 29 29 30 32 33 35 36 37 38 38 39 40 41 42 43
18 18 18 18 18 18 18 18 18 18 19 19 20 20 20 20 21 22 23 23 24 25 26 27 27 28 28 29 31 32 33 34 36 37 38 39 40 41 42 43 44 45 46
19 18 19 19 19 18 18 18 18 18 18 19 20 20 21 22 23 24 25 25 26 26 27 28 29 30 31 33 34 35 36 37 39 40 41 42 43 43 44 45 46 46 47
20 19 19 19 18 18 18 18 18 19 19 20 21 22 23 24 25 26 26 26 27 27 28 29 31 32 34 35 37 38 39 40 41 42 43 43 44 45 46 46 47 47 48
19 19 19 19 19 19 19 19 20 21 21 22 23 23 24 25 26 26 27 28 28 29 31 32 34 35 36 38 39 40 41 41 42 42 43 44 44 45 46 46 46 46 46
19 19 20 20 19 19 20 20 21 21 22 22 22 23 24 24 25 26 27 29 30 32 33 35 36 38 38 39 40 41 41 41 42 42 43 43 44 44 44 45 45 45 44
20 20 19 19 19 20 20 21 21 21 21 22 22 23 24 25 26 28 29 31 32 34 35 36 37 38 39 39 39 40 41 41 42 42 42 42 43 43 43 43 42 42 41
19 19 19 19 19 20 20 21 21 21 22 23 23 24 26 27 28 29 30 32 34 35 36 37 38 38 39 39 39 40 40 41 41 41 41 41 41 40 40 39 38 37 37
18 18 19 19 20 20 21 22 22 22 22 24 25 26 27 28 29 31 32 33 34 35 36 37 37 37 37 38 38 38 39 39 39 39 38 38 38 37 36 35 35 34 34
17 17 18 19 20 20 20 20 21 22 23 25 26 27 28 30 31 32 33 34 35 35 36 36 36 36 36 36 37 37 37 36 36 37 36 36 35 35 34 34 33 33 34
16 17 18 18 19 20 20 21 22 23 25 26 27 29 30 31 32 33 34 34 35 35 35 35 35 36 36 35 35 35 35 35 35 34 34 34 33 33 33 32 32 32 32
17 18 18 19 19 20 21 22 24 25 26 28 29 30 31 32 33 33 34 34 34 35 35 35 35 34 34 34 34 34 34 33 33 33 33 32 31 31 31 31 31 30 30
17 18 19 19 20 21 23 24 26 27 28 29 30 31 31 32 33 33 33 34 34 34 34 34 33 32 32 32 32 32 32 32 32 31 31 30 30 30 30 29 29 29 29

GEFSGL_500_meanwind_174.txt.gz
Wind_Speed
12 13 12 12 11 11 11 13 14 14 14 15 15 16 16 16 16 17 18 19 19 19 20 22 22 22 22 22 22 22 22 23 22 23 23 23 23 24 24 24 25 25 25
13 13 12 12 12 12 12 13 14 14 15 16 16 16 16 17 17 17 18 19 19 20 20 21 22 23 23 23 23 23 23 24 24 24 25 25 25 26 26 26 26 27 27
12 12 12 13 13 13 13 12 12 13 14 15 15 16 17 17 18 18 18 19 20 20 21 22 23 23 23 24 24 25 25 26 26 26 26 27 27 28 28 29 29 30 30
12 12 12 13 12 12 12 12 12 13 13 13 14 15 16 17 17 17 18 19 20 20 21 21 22 23 23 24 25 26 26 26 27 27 28 29 30 30 31 31 32 33 33
11 11 11 11 12 12 12 12 12 12 13 13 14 15 16 16 16 17 17 18 19 20 21 22 22 23 24 25 25 25 26 26 27 28 29 30 31 31 32 33 34 34 35
11 11 11 12 12 12 12 12 12 13 13 14 15 16 16 16 16 17 18 19 20 21 21 22 23 23 24 24 25 25 26 27 28 29 30 31 31 32 33 33 34 34 35
11 11 11 11 11 12 12 12 13 13 14 14 15 16 16 17 17 17 17 18 19 19 21 22 23 24 24 25 25 26 26 27 28 29 30 31 32 33 34 35 36 36 36
12 11 11 12 12 12 12 12 12 13 14 14 15 16 17 17 18 18 18 18 18 19 20 21 23 24 25 25 26 26 27 28 29 30 31 32 32 33 34 35 35 35 35
13 12 12 12 12 12 12 13 12 13 13 14 15 16 16 16 16 17 17 18 19 19 20 21 22 23 24 25 27 28 29 30 31 32 32 33 34 34 34 34 35 35 34
12 12 12 12 13 13 13 14 14 14 14 14 15 15 15 15 16 17 18 19 19 20 21 21 22 23 24 25 26 28 29 29 30 31 32 33 33 33 33 34 35 35 35
13 14 14 14 14 14 15 15 15 15 15 15 15 15 16 16 18 18 19 20 20 21 22 22 22 23 24 25 27 27 28 29 29 30 32 33 33 34 34 34 35 35 36
15 15 15 15 15 15 16 15 15 16 16 16 16 16 17 17 17 18 19 20 20 21 21 21 22 23 24 24 25 26 28 29 30 31 32 33 34 34 35 36 36 38 39
16 16 16 16 16 16 15 15 15 16 16 17 17 17 18 17 18 19 20 20 21 21 21 22 22 23 23 25 26 27 28 29 31 32 33 34 35 36 37 38 40 42 44
16 16 17 16 16 15 15 16 16 16 17 16 16 16 17 17 18 19 20 20 21 21 22 22 23 24 25 26 27 28 30 31 33 35 36 37 38 39 40 42 44 45 46
17 17 17 16 16 16 16 16 17 17 17 17 17 17 17 18 18 19 20 21 22 22 23 24 25 26 27 28 29 31 33 35 36 38 39 40 41 42 43 45 45 46 46
19 19 18 17 17 16 17 17 17 17 17 17 17 18 18 19 19 20 21 22 23 24 25 26 27 28 29 31 32 34 36 37 39 39 41 41 42 43 44 44 45 45 45
19 19 18 18 17 17 17 18 17 17 17 18 18 18 19 20 21 21 22 23 24 25 27 27 28 30 31 33 34 36 37 38 39 39 40 41 41 42 42 42 43 43 43
19 19 19 19 18 18 18 18 18 18 18 18 18 19 19 20 21 22 23 24 25 26 28 29 30 32 33 35 36 37 37 38 38 39 39 39 39 40 40 40 40 40 41
19 19 19 18 18 18 19 19 18 18 18 18 18 19 20 21 22 23 24 25 26 28 29 31 32 33 35 36 36 37 37 37 37 37 37 38 37 37 38 38 38 38 38
18 18 18 18 18 18 19 18 17 17 18 19 20 21 22 23 24 25 26 27 28 29 31 33 34 34 35 36 36 36 36 36 36 36 37 37 36 36 36 37 36 36 36
18 18 18 18 18 18 18 18 18 19 19 20 21 22 23 24 25 26 28 29 30 31 33 34 35 35 35 35 35 35 35 36 36 36 36 36 36 36 35 35 35 35 35
19 19 18 17 17 17 17 18 19 20 20 21 22 23 24 25 26 28 29 30 31 33 34 34 35 35 35 35 34 34 34 35 35 35 35 35 34 34 34 34 34 34 34
17 17 17 17 17 18 19 19 19 20 21 21 23 24 25 26 28 29 30 31 32 33 34 34 34 34 35 34 34 34 34 34 34 34 34 34 34 33 33 33 32 32 32
16 16 17 17 18 19 19 20 21 21 22 23 25 26 27 28 29 30 31 32 33 33 34 34 34 34 33 33 32 33 33 33 33 33 33 32 32 31 31 31 31 31 30
16 17 17 18 19 19 20 21 23 24 24 25 26 27 28 29 30 31 32 32 33 33 33 33 32 32 32 32 31 31 32 32 32 32 31 31 31 30 30 30 30 30 29
16 17 18 19 20 20 21 23 23 24 25 26 27 28 29 30 31 31 31 32 32 32 31 31 31 31 31 31 30 31 31 31 31 31 31 31 30 30 30 29 29 29 29

GEFSGL_500_meanwind_180.txt.gz
Wind_Speed
14 14 14 14 14 14 13 14 13 13 14 14 15 15 16 16 17 18 19 19 20 20 20 20 21 22 22 22 23 23 24 24 24 24 26 26 27 27 27 27 27 28 28
14 15 14 14 14 14 14 14 14 14 14 15 15 16 16 17 18 19 19 19 19 19 20 20 21 21 22 22 23 24 25 26 26 26 26 27 27 28 28 29 28 29 30
13 13 14 14 14 14 14 14 14 14 14 14 15 16 17 18 18 19 19 19 19 20 20 19 21 21 22 23 24 24 26 26 26 26 27 28 28 29 29 29 30 31 32
12 12 13 13 13 13 13 13 13 14 15 15 15 16 17 18 18 18 19 19 19 19 19 19 20 22 23 24 24 25 26 26 26 26 27 28 29 30 30 31 31 32 34
11 11 12 12 12 13 13 13 14 14 15 15 16 16 17 17 17 17 18 18 18 19 19 20 20 21 22 23 25 26 26 27 27 28 29 30 30 31 31 32 33 34 35
12 12 12 13 13 13 14 14 14 14 15 16 16 16 17 17 17 17 18 18 19 19 20 21 21 23 24 25 26 27 27 28 28 29 30 30 31 31 32 34 34 35 36
12 12 12 12 12 12 13 14 15 15 15 16 16 17 17 18 19 19 19 19 20 21 21 22 23 24 25 26 26 26 27 28 29 31 31 32 32 32 34 35 36 36 36
12 12 12 12 12 13 13 14 14 15 16 16 17 18 19 19 20 20 20 21 21 21 22 22 22 23 24 25 26 27 28 29 29 30 31 32 33 33 34 35 36 37 37
11 12 12 12 12 13 14 15 16 16 17 17 18 19 19 20 20 21 21 21 21 21 22 23 24 24 24 25 26 27 28 29 30 30 31 32 32 33 34 35 36 37 38
13 13 14 13 13 14 15 15 16 17 18 18 19 19 19 19 19 19 20 21 21 22 23 24 24 24 25 26 26 27 28 29 30 31 31 32 33 35 35 36 38 39 40
14 15 14 14 14 14 14 14 15 16 17 18 18 18 18 19 19 20 21 21 21 22 23 24 24 25 25 26 27 28 28 29 30 31 32 33 35 36 37 39 40 40 41
15 15 15 15 15 15 15 16 16 16 16 17 18 18 19 19 20 21 21 21 22 23 24 25 24 25 26 27 27 28 29 30 31 33 34 35 36 37 39 39 38 39 40
16 16 16 16 16 16 17 17 17 17 17 17 18 18 19 20 21 21 21 22 22 23 24 25 25 25 26 27 28 29 30 31 32 33 35 36 37 37 38 39 40 41 42
18 17 17 17 18 18 18 18 18 18 18 18 19 19 20 21 21 22 23 23 24 24 25 26 26 27 28 29 30 31 32 32 33 34 35 36 37 38 39 40 41 41 42
19 19 18 19 19 19 19 19 19 19 19 20 20 20 21 21 22 23 24 24 25 26 27 27 27 28 29 30 30 32 33 34 35 35 35 36 37 39 39 40 40 41 41
20 20 21 20 20 20 20 19 19 20 20 20 20 21 21 22 23 24 24 24 25 26 26 26 27 29 30 31 32 33 34 34 35 36 37 37 38 38 39 39 40 41 41
21 20 20 20 20 20 20 20 21 21 21 21 21 21 22 22 22 23 24 25 26 26 26 27 28 30 31 32 33 34 34 35 36 36 37 38 38 39 39 40 41 41 41
20 19 19 20 20 20 21 21 21 21 20 21 21 22 22 22 22 23 24 25 26 26 28 29 31 32 33 33 34 35 35 36 37 37 38 38 39 39 39 40 40 40 39
19 19 19 19 20 20 20 20 20 21 21 21 22 21 21 21 23 24 25 26 27 28 29 30 31 33 33 34 34 35 35 36 37 37 37 38 38 39 39 39 38 38 37
19 19 19 19 19 20 20 20 20 21 21 21 21 21 22 23 24 25 26 27 28 30 31 31 32 33 34 34 34 35 36 36 36 36 37 37 37 37 37 36 36 35 35
17 17 18 19 20 20 20 21 20 20 21 21 22 23 24 25 26 27 28 29 30 31 33 33 34 34 34 34 35 35 35 35 36 35 35 36 36 35 35 34 34 34 34
18 19 19 20 21 21 21 21 20 21 22 22 23 24 25 26 27 28 29 30 32 33 34 34 34 34 34 34 34 34 34 34 34 34 34 34 34 34 34 33 33 33 33
18 19 20 20 21 21 21 21 21 21 22 23 24 25 26 28 29 30 30 32 33 33 33 32 32 32 32 33 33 33 33 33 34 34 33 33 33 33 33 32 32 32 32
18 18 19 19 20 20 21 21 21 22 23 24 25 26 27 29 30 30 31 31 32 32 31 31 31 31 31 32 32 32 32 33 33 32 32 32 32 32 32 31 31 31 31
18 18 18 19 20 20 21 22 22 23 24 25 25 26 28 29 29 29 30 30 30 30 30 30 30 31 31 31 31 32 32 32 32 32 32 32 32 31 31 30 30 31 31
18 18 19 20 21 21 22 22 23 23 24 25 26 27 27 27 28 27 28 28 28 28 29 30 30 30 31 31 31 31 32 32 32 31 31 31 31 30 30 30 30 30 30

GEFSGL_500_meanwind_186.txt.gz
Wind_Speed
15 15 14 14 14 14 14 14 14 15 14 14 14 14 15 16 16 16 17 18 18 19 20 20 21 22 22 23 23 23 23 23 23 23 25 26 27 27 27 27 27 27 27
15 15 15 15 15 14 14 14 14 15 16 15 15 16 16 16 16 17 18 19 19 20 20 21 22 22 22 23 23 23 23 24 24 25 26 27 27 28 28 28 29 30 30
15 15 15 15 15 14 14 14 14 15 15 16 16 17 17 17 18 18 19 20 19 19 20 20 21 22 22 22 22 23 23 24 24 25 26 27 28 28 29 30 31 32 32
14 14 14 15 14 13 13 14 14 14 14 16 16 16 17 18 19 19 20 20 20 20 20 21 21 22 22 22 22 23 23 24 25 26 26 27 28 29 30 32 33 32 32
13 14 14 13 14 14 14 14 14 14 15 16 16 17 18 18 19 19 20 20 20 20 20 21 21 21 21 21 22 23 24 25 26 27 27 28 29 30 31 32 33 34 34
14 13 13 14 14 14 14 14 14 15 16 16 17 17 18 18 19 19 20 21 21 21 22 22 22 22 22 22 24 24 26 26 27 27 28 29 29 29 31 32 33 33 34
14 15 15 15 15 15 14 14 14 15 16 17 18 19 19 19 19 20 21 21 22 23 23 23 23 24 24 24 25 25 25 26 27 27 27 28 30 30 32 32 33 34 35
15 15 16 16 16 16 16 15 15 16 17 18 18 19 20 20 21 22 22 23 23 23 23 23 23 24 25 25 25 24 25 26 26 27 28 29 30 31 33 33 34 36 36
15 16 16 17 16 16 16 16 16 16 16 17 18 19 19 19 21 22 23 23 23 22 23 23 23 24 25 25 25 26 26 27 28 29 29 30 31 33 34 34 35 36 37
16 16 16 16 16 16 16 17 17 17 17 17 18 19 20 21 21 22 22 22 22 22 23 23 24 25 25 25 26 27 27 28 29 29 30 31 33 34 35 36 36 37 38
16 16 17 17 17 16 17 17 17 17 18 17 18 19 20 22 22 22 23 23 23 23 23 24 25 25 25 26 27 28 29 29 30 30 31 32 33 34 35 36 36 36 37
16 16 17 17 17 17 18 18 18 18 18 19 19 20 20 21 21 22 23 23 24 24 24 24 26 27 27 27 28 28 29 30 31 32 32 33 33 34 35 35 34 34 35
18 18 19 19 18 18 19 18 18 18 19 20 20 21 21 22 22 22 23 24 24 25 25 26 27 27 27 28 28 29 30 31 32 33 33 34 34 34 34 34 34 34 33
20 20 20 20 19 19 19 19 19 20 20 21 21 22 22 22 23 23 24 24 25 25 25 25 26 27 28 28 29 30 30 31 32 32 33 34 34 34 34 34 34 34 35
20 21 20 20 21 20 20 20 20 21 22 22 22 22 22 23 23 23 24 25 25 25 25 26 27 27 28 29 30 30 31 32 33 33 34 34 34 34 34 34 35 36 36
20 20 20 20 21 21 21 21 22 22 22 22 22 23 23 23 23 24 24 24 24 25 26 27 27 28 28 29 30 31 31 32 33 34 34 34 34 34 34 35 35 36 36
20 20 20 21 21 22 22 22 22 23 22 22 22 22 23 23 24 24 25 25 25 26 27 28 28 29 29 30 31 32 32 33 33 33 33 33 34 34 35 35 36 36 36
20 20 21 21 22 22 23 23 23 23 23 23 23 23 23 23 24 24 25 26 27 27 28 28 29 29 30 31 32 32 32 32 32 32 32 33 33 34 34 34 35 35 35
20 21 21 21 22 22 23 23 23 23 23 23 23 23 24 24 24 25 26 27 27 28 28 29 30 30 31 31 32 32 32 32 32 32 32 32 33 33 33 34 34 34 34
19 20 20 20 21 21 21 22 23 23 23 23 23 24 24 24 25 25 26 26 27 27 28 28 29 30 30 31 31 31 31 31 31 31 31 31 32 33 33 33 34 34 34
19 20 20 21 21 21 22 22 22 22 23 23 24 24 24 24 25 25 25 26 26 27 28 29 29 30 30 30 30 29 29 30 30 30 30 31 32 32 32 32 33 33 33
19 19 20 20 21 21 22 23 23 23 23 23 23 23 23 24 25 25 25 25 26 27 28 28 28 28 28 28 28 29 29 29 29 29 30 31 31 32 32 32 32 32 32
19 19 20 21 21 21 22 23 22 22 22 22 23 23 23 24 24 24 25 25 26 27 27 27 27 27 27 27 28 29 29 29 29 30 31 31 31 31 31 31 31 30 30
19 20 20 21 21 21 22 22 22 22 22 22 23 23 23 24 24 25 25 26 27 27 27 27 27 27 27 27 28 29 29 30 30 30 31 31 31 31 30 30 30 30 30
19 20 20 21 21 22 22 22 22 22 22 22 23 23 24 24 24 25 26 26 26 26 26 26 26 26 27 27 28 29 29 30 30 30 30 30 30 29 29 29 30 29 29
19 20 20 20 21 21 21 22 22 23 22 22 23 23 23 24 24 25 26 26 26 26 26 26 26 26 27 28 29 29 29 29 29 30 29 29 29 29 29 29 29 29 29

GEFSGL_500_meanwind_192.txt.gz
Wind_Speed
14 15 16 16 16 16 15 14 14 13 13 13 13 13 13 13 13 14 14 15 16 17 18 18 19 20 20 21 21 21 22 22 22 22 23 24 24 24 24 25 25 25 26
16 17 18 17 17 16 15 14 14 14 13 13 13 14 14 14 15 15 15 16 17 17 18 19 20 20 21 21 22 22 23 23 23 23 24 25 25 25 25 25 25 26 26
17 17 17 17 16 15 15 15 15 14 14 14 14 15 15 16 16 16 16 16 17 17 18 19 19 20 21 22 22 22 23 23 24 24 24 24 24 25 26 27 27 27 28
17 17 17 17 16 16 16 16 15 15 15 14 14 15 15 15 16 17 17 17 17 18 19 20 21 21 21 22 22 22 23 23 23 23 23 24 25 26 27 28 28 28 30
18 17 17 17 16 16 16 15 15 15 15 16 16 16 16 16 16 17 17 18 18 19 20 20 21 21 22 23 22 23 23 23 24 24 24 25 26 26 27 28 28 29 30
18 18 17 17 16 16 16 16 16 16 16 16 17 17 17 17 18 18 18 19 20 21 21 22 22 23 23 23 23 24 24 24 24 25 26 26 26 27 28 29 30 30 31
18 18 17 17 17 16 16 16 16 16 16 17 17 17 17 18 19 19 20 20 21 21 22 22 23 23 24 25 25 25 25 25 26 26 26 27 27 28 29 29 30 31 33
17 17 17 17 16 16 16 16 16 17 17 17 17 18 18 18 19 19 20 21 22 22 23 23 24 25 25 25 25 26 26 26 27 28 28 29 29 30 30 31 32 32 33
16 17 17 16 15 15 16 16 17 17 18 18 18 18 19 19 19 20 21 22 22 23 24 24 25 26 26 26 26 26 27 27 28 29 30 30 30 31 31 32 32 33 33
16 17 16 16 16 16 17 17 18 18 19 18 19 19 19 20 20 21 22 23 23 23 24 25 25 26 26 25 26 27 27 28 29 29 30 30 30 31 32 32 33 33 34
17 17 17 17 17 17 17 18 18 18 19 19 19 20 20 21 22 22 23 23 24 24 25 25 26 26 26 26 27 28 29 29 29 29 30 30 31 32 32 33 33 34 35
18 18 17 17 18 18 18 19 19 19 19 19 19 21 22 23 23 23 24 24 25 25 26 26 26 26 27 28 29 29 30 30 30 30 31 31 32 32 33 34 34 35 35
19 18 18 18 19 19 19 19 19 19 19 20 21 22 22 23 24 24 24 25 25 26 26 26 27 28 29 29 29 29 30 30 30 30 31 32 33 33 33 34 34 34 35
20 20 19 19 19 19 19 19 20 20 20 21 22 22 23 24 25 25 25 26 26 26 26 27 28 28 29 29 30 30 30 30 31 31 32 32 33 33 33 33 34 34 34
21 21 21 20 20 20 20 20 21 21 21 22 23 23 24 25 26 25 25 26 26 26 27 27 28 28 29 29 30 30 30 31 31 32 33 33 33 32 33 33 33 34 34
21 21 20 20 20 20 20 21 21 22 22 23 24 25 25 26 26 26 26 26 26 27 27 28 28 29 29 30 30 30 31 31 32 32 32 32 32 33 33 33 33 33 33
20 20 20 20 20 21 22 22 23 23 23 24 25 26 26 26 26 26 26 26 27 27 28 28 29 29 29 30 30 30 30 31 32 32 32 32 32 32 32 32 32 33 33
20 20 20 21 21 22 22 23 23 24 24 25 26 27 26 26 26 26 26 26 27 28 28 29 29 29 29 30 30 30 31 31 31 32 31 31 32 32 32 32 33 33 33
20 20 21 21 22 22 23 23 24 25 25 25 26 26 26 26 27 26 26 27 28 28 28 29 29 29 29 29 30 30 30 31 31 31 31 31 32 32 32 33 33 33 33
20 21 21 22 22 23 23 24 24 25 25 25 25 26 26 27 26 26 26 27 27 28 28 29 29 30 30 29 30 30 30 30 31 31 31 31 32 32 32 33 33 33 33
21 22 22 22 23 23 24 23 23 24 24 25 26 26 26 26 26 26 26 27 27 28 29 29 30 30 30 29 29 30 30 30 30 31 31 31 32 32 33 33 33 32 32
21 21 22 22 23 23 23 23 23 23 24 24 24 24 25 26 26 26 27 27 28 29 29 29 29 29 29 29 29 29 30 30 30 31 31 31 32 32 32 32 32 31 31
22 22 21 22 22 22 23 23 24 24 24 24 25 25 26 26 26 26 27 27 28 29 29 29 29 29 29 29 29 30 30 30 30 31 31 31 31 31 31 31 31 31 31
21 21 21 21 21 22 22 22 23 23 24 25 25 26 26 26 26 27 27 27 28 28 28 28 29 29 30 30 30 30 30 31 31 30 30 30 30 30 30 31 31 31 31
21 21 21 21 21 22 22 23 23 24 25 25 26 26 26 27 27 27 27 28 28 28 28 29 29 30 30 30 30 30 31 31 30 30 30 30 31 31 31 31 31 31 31
21 21 21 21 21 22 22 23 24 24 24 25 25 25 26 26 26 27 27 27 28 28 29 29 29 29 30 30 31 31 31 30 30 30 30 30 30 31 31 30 30 30 30

GEFSGL_500_meanwind_198.txt.gz
Wind_Speed
10 10 10 10 11 11 11 11 12 12 11 11 10 9 9 9 10 11 12 13 13 13 14 14 13 14 15 16 17 18 18 18 18 19 21 21 22 23 24 23 22 23 24
11 11 11 11 11 12 13 13 13 12 11 11 10 10 10 10 12 12 13 14 14 14 14 14 15 15 16 16 16 17 18 18 19 20 21 22 22 23 24 24 24 24 24
12 12 12 12 12 12 13 14 13 13 11 11 10 11 11 12 12 12 12 13 14 14 15 15 16 17 17 17 18 18 19 20 20 20 21 21 22 22 23 23 24 25 26
14 14 14 13 13 14 14 14 14 12 11 11 11 11 12 12 12 12 12 13 14 15 15 16 17 18 19 19 20 20 20 20 21 21 21 22 22 23 24 24 25 27 28
15 15 16 15 15 15 15 15 14 13 12 12 11 11 12 13 12 13 14 15 15 16 16 17 18 19 19 20 20 21 22 22 22 23 23 23 24 25 26 27 27 28 29
16 16 16 16 16 16 15 14 14 13 13 13 13 13 14 13 13 14 15 15 15 16 17 18 19 19 20 20 21 21 22 22 22 23 23 24 25 26 27 28 28 29 30
16 15 16 16 16 16 14 13 13 13 13 14 14 15 15 15 15 15 15 15 16 16 17 18 20 20 21 21 21 22 23 23 24 25 25 26 27 27 28 28 29 29 30
14 14 15 16 16 15 14 13 14 14 14 15 14 15 15 15 15 15 16 16 17 18 19 19 20 21 22 22 23 23 24 25 25 25 26 27 27 28 29 29 29 29 30
14 13 13 14 15 15 14 14 14 14 14 14 14 15 15 15 15 16 17 18 19 19 19 20 21 22 22 23 24 24 25 26 26 27 27 27 28 29 29 29 29 30 30
13 13 13 13 13 13 13 13 13 13 13 14 14 14 14 15 16 17 17 18 19 19 20 21 21 22 23 24 25 25 26 26 26 26 27 28 28 29 29 29 30 31 31
13 13 13 12 12 12 11 12 12 13 14 14 14 15 15 16 17 17 18 18 19 20 21 22 23 23 24 25 25 25 25 26 26 27 28 28 28 29 29 30 31 32 33
14 14 14 13 13 12 12 12 12 13 14 14 15 15 15 15 16 17 18 19 20 21 22 22 23 23 24 25 25 25 26 26 27 28 28 29 29 30 31 31 32 33 33
15 15 15 14 13 13 12 13 13 14 15 15 15 16 16 16 17 18 19 20 20 21 22 22 23 23 24 25 26 26 27 28 28 29 29 30 31 31 32 32 33 33 33
15 16 15 15 14 14 14 15 15 16 15 15 16 16 17 18 18 19 20 20 21 22 23 23 24 25 25 25 26 27 28 29 29 29 30 30 31 32 32 32 33 33 33
16 16 16 15 15 16 16 16 16 15 16 16 17 17 18 19 20 20 21 21 22 22 24 24 25 26 26 26 27 28 29 29 29 30 30 31 31 31 31 31 31 31 32
17 17 16 16 16 16 16 15 15 15 16 17 18 18 19 20 21 21 22 23 23 24 25 26 26 26 27 28 28 29 29 29 29 30 30 30 30 30 30 30 31 31 31
17 17 16 16 16 16 16 16 16 17 18 18 18 19 20 21 21 22 23 23 24 25 26 26 26 26 27 27 28 28 29 29 29 29 29 30 30 30 30 30 30 31 31
16 17 16 16 17 17 17 17 18 19 19 19 20 20 21 21 22 22 23 24 25 25 25 25 26 26 27 28 28 28 29 29 29 29 29 30 30 29 30 30 31 31 31
17 17 17 17 17 17 18 18 18 19 20 20 21 20 21 22 22 23 23 24 25 26 26 26 27 28 28 29 29 28 29 29 30 30 30 30 30 30 30 30 31 31 31
18 17 17 17 18 18 18 19 19 20 20 20 20 21 21 22 22 23 24 25 26 26 27 27 28 28 28 28 28 28 29 29 29 29 29 29 29 30 30 30 30 31 31
18 18 19 19 19 18 18 19 20 20 20 21 21 21 22 22 23 24 25 26 27 27 27 27 28 28 28 28 28 28 28 29 29 29 29 29 29 30 30 30 30 31 30
19 19 19 19 19 19 20 21 21 21 21 22 22 22 23 23 24 25 25 26 26 26 27 27 27 28 28 28 28 28 28 29 29 29 29 30 30 30 30 30 30 30 30
20 19 19 20 20 20 21 22 21 21 21 22 23 23 23 24 25 26 26 27 27 27 27 27 28 28 28 28 28 29 29 29 29 29 29 30 30 30 30 29 29 30 30
20 20 20 21 21 21 22 22 22 22 23 23 24 24 25 25 26 26 27 27 28 28 28 28 28 28 29 29 30 30 29 29 29 29 29 29 30 30 30 29 29 28 28
20 21 21 21 22 23 23 23 23 23 24 25 26 26 26 26 26 27 27 28 28 29 29 29 29 29 29 29 29 30 29 29 29 29 30 30 30 30 29 29 29 29 29
21 21 22 22 22 22 23 23 24 25 25 25 25 25 25 26 26 27 28 28 29 29 29 28 29 30 30 30 30 30 30 30 30 30 30 30 30 30 29 29 29 29 29

GEFSGL_500_meanwind_204.txt.gz
Wind_Speed
11 11 12 12 11 11 11 12 12 12 11 11 11 11 12 12 13 13 13 14 14 14 14 14 14 15 15 16 16 16 17 18 18 20 22 23 23 24 24 24 25 25 26
12 12 13 13 13 13 14 14 14 13 12 12 12 13 13 13 13 13 13 13 14 14 14 14 15 16 16 17 17 18 19 19 20 21 22 23 23 24 25 25 26 26 27
13 13 14 14 15 15 16 15 15 15 14 14 14 14 14 14 14 13 14 15 14 14 15 15 16 17 18 19 19 20 21 21 21 22 22 23 24 24 24 25 26 27 28
14 14 15 15 16 17 17 16 16 16 16 16 16 15 15 15 15 14 15 15 15 15 16 17 17 18 19 20 21 22 23 23 23 24 24 24 25 26 26 27 28 28 29
14 15 16 17 17 17 17 17 18 18 18 17 17 17 16 16 16 16 16 16 16 17 18 18 19 19 20 21 23 24 25 25 25 26 26 26 27 27 27 29 29 29 30
15 16 17 17 17 17 17 17 18 18 18 18 18 17 16 16 16 16 16 17 17 18 19 19 20 20 21 22 23 24 25 25 25 26 27 28 28 29 30 30 31 31 31
15 16 16 16 16 16 16 16 17 17 16 16 17 17 16 16 16 16 17 17 18 19 20 21 21 21 22 23 23 24 25 25 26 27 28 29 29 30 30 31 31 31 31
15 16 16 16 16 16 16 16 16 17 16 16 16 16 16 16 16 16 17 18 19 20 21 21 22 23 24 24 25 25 26 26 27 28 28 29 29 29 30 30 31 31 30
15 16 16 17 16 16 16 15 15 15 15 15 15 15 16 16 16 16 17 18 19 20 20 21 22 23 24 24 25 26 27 27 28 29 29 29 29 30 30 30 30 30 31
17 17 17 16 16 16 15 14 14 15 15 14 15 15 15 15 15 16 17 18 18 19 20 21 22 23 24 24 25 26 27 27 28 28 28 29 29 30 30 30 31 31 33
17 17 17 16 16 15 14 13 14 14 14 14 13 13 14 15 16 16 17 18 19 20 21 21 22 23 24 25 26 26 27 27 27 28 29 30 30 30 31 31 32 33 34
17 17 17 16 15 14 13 14 14 14 14 14 14 14 15 16 16 17 18 19 19 20 21 23 24 24 25 26 26 26 26 27 28 29 29 30 30 31 31 31 32 33 34
17 17 17 15 14 14 14 14 15 15 15 15 15 15 16 17 17 17 18 18 18 20 22 23 24 25 26 26 26 27 27 28 29 29 30 30 31 31 32 33 34 34 33
16 16 16 15 15 14 14 15 15 15 15 15 15 16 16 17 17 18 18 19 20 21 23 24 25 25 26 26 27 28 28 28 29 30 30 31 31 32 32 33 33 33 33
16 16 16 16 16 16 16 16 16 16 16 16 16 17 17 18 18 19 20 20 21 23 24 25 25 26 27 28 28 28 29 30 30 31 31 32 33 33 33 33 33 32 32
17 16 16 16 16 16 16 16 16 16 17 17 17 18 18 19 19 20 21 22 23 24 25 25 26 27 27 28 29 29 30 30 31 32 33 33 33 32 32 32 32 32 32
17 17 17 16 16 17 17 17 17 18 18 19 19 19 19 20 20 21 22 23 24 24 25 26 27 28 28 28 29 30 31 32 32 33 33 33 32 32 32 32 32 32 32
18 17 17 17 17 18 18 18 19 19 20 20 20 21 21 21 21 22 23 24 24 25 26 27 28 28 29 29 30 31 32 32 33 33 32 32 32 32 32 32 32 32 32
19 18 18 18 18 19 19 20 20 21 21 21 21 21 22 22 23 23 24 25 25 26 27 28 28 29 30 30 31 31 32 32 32 32 32 32 32 32 32 32 32 32 32
20 20 19 19 19 20 21 21 21 22 22 21 21 22 22 23 24 25 25 26 27 27 28 28 29 30 31 31 32 32 32 32 32 32 32 32 32 32 31 31 31 31 31
21 21 21 21 22 22 23 23 22 22 22 22 22 23 23 24 25 26 27 27 28 28 29 29 30 31 32 32 32 32 32 32 32 32 32 32 31 31 31 31 31 31 31
22 22 23 23 23 24 24 23 23 23 23 24 24 24 25 26 26 27 28 28 28 29 30 30 31 33 33 32 32 31 32 32 32 32 32 31 31 30 30 31 31 31 31
23 23 24 24 23 23 23 23 23 23 24 24 25 26 26 27 28 28 28 29 29 30 31 32 33 33 33 32 32 32 32 32 32 32 32 31 31 31 31 31 31 31 31
23 23 23 23 22 23 23 23 24 25 25 25 26 26 27 28 28 28 29 30 30 31 32 33 33 33 32 32 32 32 32 32 32 32 32 32 32 32 32 31 31 31 31
22 23 23 23 23 24 24 24 25 25 26 26 27 27 27 28 29 30 31 31 31 31 32 32 32 32 32 32 33 33 33 33 33 33 33 33 33 32 32 31 31 30 30
22 23 23 23 23 24 24 25 25 26 27 27 27 27 28 29 30 30 31 31 31 32 32 32 32 33 33 33 33 34 34 34 33 33 33 33 32 32 31 31 31 31 30

GEFSGL_500_meanwind_210.txt.gz
Wind_Speed
14 14 13 13 13 13 13 13 13 13 12 13 13 12 12 12 12 12 12 13 13 13 13 13 14 15 15 15 15 16 17 18 19 20 21 21 21 21 22 23 24 25 25
14 14 14 14 14 14 14 14 14 14 14 14 14 14 13 14 14 14 14 14 14 14 15 15 15 16 17 18 17 17 19 20 21 21 22 22 23 24 25 25 25 26 27
15 15 15 15 15 15 15 15 16 16 16 16 16 15 15 15 15 15 15 15 16 16 17 17 18 19 19 19 19 19 21 22 22 23 24 24 25 25 26 27 27 28 28
15 15 15 15 15 16 16 16 17 17 17 17 17 17 17 17 17 17 17 17 18 18 19 19 19 19 19 20 20 21 22 22 23 24 25 25 26 26 27 27 28 28 29
15 15 16 15 16 17 17 17 16 17 17 17 17 17 17 17 17 18 18 18 18 18 19 19 19 20 20 21 21 21 22 23 24 25 26 26 26 27 27 28 28 28 29
16 15 16 16 16 16 16 16 16 17 17 17 18 18 18 18 18 18 18 17 17 18 19 20 20 21 21 21 22 22 23 24 25 25 25 26 26 27 28 28 28 29 30
16 16 16 17 17 16 16 17 18 18 18 18 18 18 18 18 18 18 18 17 18 19 20 22 22 22 23 23 23 23 24 24 25 25 25 26 27 27 28 29 29 30 30
16 16 16 17 17 17 17 18 18 17 18 17 17 17 17 17 17 17 17 18 18 19 20 21 22 22 22 23 24 24 24 24 24 25 25 26 27 28 29 29 30 30 30
16 16 16 17 17 17 17 18 17 16 16 17 16 16 17 17 16 17 17 18 19 19 20 21 21 21 21 22 23 23 23 24 25 26 27 27 27 28 29 30 30 30 30
16 16 16 17 17 17 17 17 16 16 16 16 16 17 17 17 16 17 18 18 19 19 20 20 20 20 21 22 22 23 24 25 26 27 27 27 27 28 29 29 29 30 30
16 17 17 17 17 17 17 17 17 16 15 16 16 16 17 17 17 17 18 18 19 19 20 19 19 21 22 22 23 24 25 26 26 26 26 26 27 28 29 29 30 30 31
17 17 17 17 17 18 18 17 17 16 16 16 17 17 17 17 17 18 18 19 19 20 20 20 20 21 22 23 23 25 25 25 26 26 26 27 28 29 29 30 30 31 32
18 17 17 17 18 18 18 17 16 16 16 16 17 17 17 18 18 18 19 19 19 20 21 21 22 22 23 24 24 25 25 26 26 27 28 29 29 30 30 30 30 31 31
17 17 17 18 18 17 17 16 16 16 17 17 17 18 18 19 19 19 20 21 20 21 21 22 23 24 24 24 25 25 26 27 27 28 28 29 30 30 30 31 31 30 31
18 18 19 19 18 17 17 17 17 17 18 18 18 19 19 19 20 21 21 21 21 22 23 23 23 23 24 25 26 26 27 27 28 29 29 30 30 30 31 31 31 32 32
19 19 19 19 19 18 17 18 18 18 18 19 19 20 20 21 21 21 22 22 23 23 24 24 24 25 25 26 26 27 28 28 29 29 30 30 30 30 31 31 31 31 31
20 20 19 19 19 18 18 19 19 19 19 20 20 21 21 21 22 23 23 23 24 24 25 25 25 26 27 27 28 28 29 29 30 30 30 30 30 30 31 32 32 31 31
21 21 20 20 19 19 19 19 20 20 21 21 22 22 23 23 23 24 24 24 25 25 25 26 26 27 28 29 29 29 29 30 30 30 30 30 30 31 32 32 31 31 31
23 22 22 21 20 20 20 21 21 22 22 23 23 24 24 24 25 25 25 25 26 26 27 27 28 29 29 29 29 30 30 31 31 31 31 31 31 31 32 32 31 31 31
24 24 23 22 22 22 22 23 23 24 24 25 25 25 26 26 26 26 26 26 27 28 28 29 29 30 30 30 30 30 31 31 31 31 31 31 31 32 32 32 32 31 31
25 25 25 24 24 24 24 25 25 26 26 26 26 26 27 27 27 27 28 28 28 29 29 30 30 30 30 30 31 31 31 31 31 31 31 31 32 32 32 31 31 31 31
26 26 26 26 25 25 26 26 27 27 27 27 27 27 27 27 28 28 28 29 30 30 30 30 30 30 30 31 31 31 31 31 31 31 31 32 32 32 31 31 31 31 31
26 26 26 26 26 26 26 27 27 27 27 28 28 28 28 27 28 28 29 29 30 30 30 31 31 31 31 31 31 31 31 31 32 32 32 32 32 32 32 32 31 31 30
26 26 26 26 26 27 27 27 28 28 28 28 28 28 28 28 29 29 30 30 31 30 31 31 31 31 32 31 31 31 32 32 32 32 32 32 32 32 33 32 32 31 30
26 26 26 26 27 27 27 28 28 29 29 29 29 29 29 29 29 30 30 30 30 30 31 31 31 32 32 32 33 33 33 33 33 33 32 32 32 32 32 32 31 30 30
25 25 25 26 27 27 28 29 29 29 29 28 28 28 29 29 29 29 29 30 30 31 32 32 32 33 33 33 33 33 33 33 33 33 32 32 32 32 32 32 31 30 30

GEFSGL_500_meanwind_216.txt.gz
Wind_Speed
14 15 15 15 15 14 15 15 14 14 12 12 13 13 12 13 13 13 14 13 13 13 13 14 14 15 15 16 17 17 18 18 18 19 19 18 18 19 20 21 22 22 23
15 15 15 15 16 16 16 16 15 15 14 13 13 13 13 13 13 13 13 13 14 14 15 15 16 16 17 17 17 18 19 19 19 19 20 20 20 20 21 22 22 23 24
16 16 16 16 17 17 17 16 16 15 15 14 14 14 14 14 14 14 14 14 15 15 16 16 17 17 18 18 19 19 20 20 21 21 21 21 21 22 23 23 23 24 24
17 16 16 17 17 17 17 16 16 15 15 15 15 15 15 15 15 16 15 15 15 16 17 17 18 18 19 20 20 21 21 22 22 22 22 22 22 23 23 23 24 25 25
18 18 17 17 17 17 18 16 15 15 15 16 16 16 17 17 16 16 16 16 16 17 18 19 19 20 20 21 21 22 22 23 23 23 24 23 23 23 24 24 25 26 26
19 19 18 18 18 18 18 17 17 17 17 17 17 17 17 16 16 17 17 17 18 19 19 20 20 21 21 21 22 23 24 24 24 24 24 23 23 24 24 25 26 26 26
19 19 18 18 17 18 18 18 18 18 18 17 17 17 16 16 16 16 17 17 18 19 19 19 20 20 21 22 22 23 23 24 24 24 24 23 24 24 25 26 26 27 27
19 18 17 17 18 18 19 19 19 18 18 18 18 17 17 17 16 16 17 18 18 18 17 18 19 20 21 22 22 23 24 24 24 24 25 25 25 25 26 27 27 27 28
19 18 18 18 18 19 19 20 19 19 19 18 18 18 18 18 17 17 18 18 18 17 18 18 19 20 21 22 23 24 24 25 24 25 25 25 25 25 27 28 28 28 29
20 19 19 19 19 20 20 20 20 20 19 19 18 17 18 18 17 17 18 18 18 18 18 19 19 20 21 22 23 23 23 24 24 25 25 26 26 26 27 29 29 29 30
20 20 20 20 20 20 20 20 21 20 20 19 18 17 18 18 18 18 18 19 19 19 19 20 20 20 21 22 23 23 23 24 24 25 25 26 26 27 28 29 29 30 30
21 20 20 20 20 20 20 20 21 20 19 18 18 18 18 18 19 19 19 19 19 20 20 21 22 22 22 23 23 24 24 24 25 26 26 27 27 28 28 28 29 29 30
21 21 21 21 20 20 20 20 20 19 18 18 18 19 19 19 19 19 19 20 20 21 21 22 22 23 23 23 24 24 25 26 27 27 28 28 28 28 28 29 29 29 30
22 22 21 21 21 20 21 21 20 19 19 19 19 19 19 20 20 20 20 21 21 21 22 23 23 23 24 24 25 26 27 27 28 28 29 29 29 29 29 29 30 30 30
23 22 22 22 22 22 22 21 21 20 20 19 20 20 20 20 20 21 21 22 23 23 23 24 24 24 24 25 26 27 29 29 29 30 30 30 30 30 30 30 30 30 30
23 23 22 22 22 23 23 23 22 21 21 20 21 21 21 21 21 22 22 23 24 25 25 25 25 25 25 26 27 28 29 30 30 31 30 30 30 30 30 30 31 31 32
23 23 23 23 23 24 24 23 23 22 22 22 22 22 22 22 23 24 25 25 25 26 26 26 26 26 27 28 29 29 29 30 31 31 31 31 31 31 31 31 31 31 32
24 24 24 24 25 25 24 24 23 23 23 24 24 24 24 25 26 26 27 27 26 27 27 27 28 28 28 29 29 30 30 31 32 32 32 31 31 31 31 31 31 31 32
24 24 25 25 25 25 25 24 24 25 25 25 25 26 26 27 27 28 28 27 28 28 29 29 29 29 29 30 31 31 31 32 32 32 32 32 31 31 31 32 32 32 32
25 25 26 25 25 25 25 25 26 26 26 26 27 27 27 28 28 28 28 29 29 29 30 30 30 30 30 31 31 31 32 32 32 32 32 32 32 32 32 32 32 32 33
25 26 26 26 26 26 26 26 27 27 28 28 27 28 29 29 28 28 29 30 30 30 31 31 31 31 31 32 32 32 32 32 32 32 33 33 33 33 33 33 33 33 33
26 27 27 27 26 26 27 27 28 28 28 28 28 29 30 30 30 30 30 30 30 30 31 31 31 31 32 32 31 31 32 32 33 33 34 34 33 33 33 33 33 33 33
28 28 28 27 26 26 27 28 28 28 28 29 29 29 30 30 30 31 31 31 31 31 31 31 31 31 31 31 31 32 32 33 33 34 34 33 33 33 33 33 33 32 32
29 28 27 27 27 27 28 28 28 29 29 29 29 30 30 31 31 31 32 32 32 31 31 31 31 30 31 32 32 32 33 33 33 33 33 33 33 32 32 32 32 32 32
28 28 28 28 28 28 28 28 29 29 30 30 30 31 31 31 31 31 31 32 32 32 31 31 30 31 32 32 32 32 32 32 32 32 32 32 32 33 33 33 33 33 33
27 28 28 28 28 28 28 29 29 29 29 30 31 31 31 31 31 31 32 32 31 31 31 31 31 32 32 32 32 32 32 33 33 33 33 33 33 33 33 33 33 32 32

GEFSGL_500_meanwind_222.txt.gz
Wind_Speed
11 11 11 11 12 12 11 10 10 10 10 10 9 8 8 9 9 10 10 11 11 12 12 12 12 13 13 13 13 14 14 15 16 16 17 17 18 18 19 19 19 20 21
12 13 13 13 13 13 13 12 11 11 11 11 10 9 9 10 11 11 11 12 13 13 14 13 13 13 13 14 15 15 16 16 16 17 18 19 19 19 20 20 20 21 21
13 14 14 14 14 14 14 13 12 11 11 10 9 9 9 10 11 12 12 13 13 13 13 14 14 15 16 17 17 17 17 17 18 19 19 20 20 21 21 21 21 22 23
14 14 14 14 14 14 14 14 13 11 11 9 9 9 10 10 11 11 11 12 12 13 13 14 15 16 17 18 18 18 18 19 19 20 20 21 21 22 22 22 23 24 24
14 15 15 14 14 14 14 14 13 13 11 10 10 10 10 10 11 12 12 12 12 13 14 15 15 16 17 18 18 18 18 19 20 21 21 22 23 23 24 25 25 25 25
14 15 15 15 15 14 14 14 13 13 11 11 11 10 11 11 12 12 12 12 13 14 15 15 16 17 17 17 18 18 18 19 20 21 22 23 24 24 25 25 26 26 26
15 15 15 15 15 14 14 14 14 13 12 12 12 12 13 13 13 13 13 13 13 14 15 15 16 17 17 18 18 18 19 20 22 23 24 24 24 25 25 25 26 26 27
15 15 15 15 15 14 15 15 15 14 14 14 14 14 15 15 15 14 14 14 14 15 16 17 18 18 17 18 18 18 20 21 22 23 24 24 24 25 25 26 27 27 27
16 16 16 15 15 15 15 16 16 16 15 15 15 15 16 15 15 16 16 16 16 16 17 18 18 18 18 19 20 20 21 22 23 24 24 24 25 26 26 27 27 28 28
16 16 16 16 16 16 16 16 17 16 16 16 16 17 17 17 17 17 17 17 17 17 18 18 18 19 19 20 20 21 22 22 23 24 24 25 26 26 27 27 28 28 29
17 17 17 17 17 17 16 17 17 17 17 17 18 18 17 18 18 17 17 17 17 17 18 18 19 19 20 20 21 22 23 23 24 25 25 26 26 27 27 28 28 29 29
18 18 18 18 18 18 17 17 18 18 18 18 18 18 18 18 19 18 17 17 17 18 19 19 20 20 21 22 22 23 23 24 24 25 25 26 27 27 28 29 29 30 30
19 19 19 18 18 18 18 18 19 19 19 18 19 19 19 19 18 18 18 18 19 19 20 20 21 21 22 22 23 23 23 24 25 25 26 27 28 28 28 29 29 30 31
20 20 19 19 19 19 19 19 19 19 19 19 19 19 20 19 19 18 18 19 20 20 20 20 21 22 22 23 23 24 25 25 26 27 28 28 28 28 29 29 30 30 30
20 20 19 19 19 19 19 19 20 19 19 19 19 20 20 19 19 19 20 20 21 21 21 22 23 24 24 24 25 25 26 26 27 28 28 28 29 29 30 30 31 30 30
20 20 20 20 19 20 20 20 20 20 19 19 20 20 20 20 20 21 22 22 22 22 23 23 24 25 25 26 26 26 26 27 27 27 28 29 29 29 30 30 30 30 30
21 21 21 21 21 21 21 21 20 20 20 20 21 21 21 21 22 22 23 23 23 24 24 25 25 25 26 27 27 27 27 27 28 28 29 29 30 30 30 30 30 30 30
22 21 21 22 21 22 22 21 21 21 21 21 22 22 23 23 23 23 24 25 26 26 26 26 26 26 27 27 27 28 28 28 29 29 30 30 30 30 31 31 30 31 31
21 21 22 22 22 22 22 22 22 22 22 23 23 23 23 23 24 25 26 26 26 27 26 26 27 27 28 28 28 28 28 29 29 30 30 30 30 30 31 31 31 31 31
22 22 22 23 23 23 23 23 23 24 24 24 24 24 24 24 25 26 27 27 27 26 26 27 28 28 28 29 29 29 29 29 29 30 30 30 30 31 31 31 31 32 32
23 23 24 23 23 24 24 25 25 25 25 25 25 25 25 25 26 26 27 27 27 27 27 28 29 29 29 29 29 29 29 30 30 30 31 31 31 31 31 32 32 32 32
24 24 24 25 26 26 26 26 26 26 26 25 25 26 26 26 26 27 27 27 27 28 28 29 29 29 30 30 30 30 30 31 31 31 32 32 32 32 32 32 32 31 31
24 25 25 26 26 27 26 26 26 26 26 25 25 25 26 27 27 27 28 28 28 29 29 29 29 30 31 31 31 31 31 32 32 32 32 32 32 32 32 32 32 32 32
25 26 26 27 26 26 26 25 25 25 25 25 25 25 26 27 27 27 28 28 29 29 29 29 30 31 31 31 32 32 32 32 32 32 33 33 32 32 32 32 32 32 31
26 26 27 27 27 26 26 25 25 25 25 25 25 26 26 27 27 28 29 29 29 29 30 31 31 32 32 32 32 32 32 32 32 32 33 33 33 33 33 33 32 31 31
26 26 27 27 27 27 27 26 25 25 26 26 26 26 27 28 29 30 30 30 30 31 31 32 32 33 32 32 32 32 32 32 33 33 33 33 33 33 33 32 31 31 31

GEFSGL_500_meanwind_228.txt.gz
Wind_Speed
14 13 12 12 12 12 13 13 13 13 13 13 13 12 12 13 13 13 12 12 13 14 14 15 15 16 16 17 17 17 17 18 19 19 20 20 20 20 20 21 22 23 23
13 14 14 13 13 13 14 14 14 14 13 13 14 13 13 13 13 13 13 13 13 14 15 15 16 17 17 16 17 17 18 19 19 19 20 20 20 21 21 22 23 24 24
14 14 15 14 14 14 14 14 14 14 13 12 13 13 12 12 12 12 12 13 14 15 16 16 17 17 17 17 17 18 19 19 19 19 20 20 21 22 23 24 24 25 25
15 15 15 15 15 15 15 14 14 14 13 13 13 12 12 12 13 13 13 14 14 14 15 15 16 16 16 17 18 18 19 20 20 20 20 21 22 23 24 24 25 26 27
16 16 16 16 16 16 16 15 15 15 14 14 13 13 13 14 13 13 14 14 15 15 16 17 17 17 18 19 19 20 20 20 21 21 21 22 23 24 25 26 26 27 27
17 17 16 16 17 16 16 16 16 15 15 15 15 14 14 14 14 15 15 15 16 17 17 18 19 19 19 20 20 21 20 20 21 22 22 23 24 25 25 26 26 27 27
18 18 17 17 17 17 17 17 17 16 17 16 16 15 15 15 15 16 16 17 18 18 18 19 19 19 19 19 20 20 20 21 21 22 23 23 24 24 25 26 26 27 27
19 19 18 17 18 18 18 18 18 18 17 17 16 16 16 16 17 17 18 19 19 19 19 19 19 19 19 20 20 20 20 21 22 22 22 23 24 25 26 27 27 28 29
20 19 19 18 18 18 19 19 19 19 18 17 16 17 17 17 18 18 18 19 20 20 20 20 19 19 19 20 20 20 21 21 22 23 24 24 25 26 27 27 28 28 28
20 19 19 19 19 19 19 19 19 19 19 18 17 17 17 18 18 18 19 20 20 21 20 20 20 20 20 20 21 21 22 22 23 23 24 25 26 26 26 27 28 28 29
20 19 19 19 19 19 20 20 20 20 19 18 18 18 18 19 19 19 19 20 20 20 20 20 21 22 22 22 22 22 22 22 23 23 24 24 25 26 26 27 28 29 29
20 20 20 20 20 20 21 21 20 20 20 19 19 19 20 20 20 20 20 21 20 20 21 21 22 22 22 22 22 22 22 23 24 24 24 25 25 26 27 28 28 29 30
21 21 21 21 21 22 22 21 21 21 20 20 20 20 20 21 21 21 21 21 21 21 22 22 21 22 22 22 22 23 23 23 24 25 25 26 26 27 28 28 29 30 30
22 21 21 22 22 22 22 22 22 22 22 22 21 21 21 21 21 21 21 21 21 21 21 22 22 23 24 24 24 24 24 24 25 26 27 27 28 28 28 29 29 30 30
21 21 21 22 22 22 22 22 22 22 22 23 22 22 22 22 21 22 22 22 22 22 22 23 24 25 25 25 25 25 26 26 26 27 27 28 28 28 28 29 29 30 30
21 21 22 22 22 22 22 22 23 23 23 24 23 23 23 23 22 23 23 23 23 24 24 24 25 25 25 26 26 27 27 27 27 28 28 28 29 29 29 29 29 29 30
23 22 22 22 22 22 22 23 23 24 24 25 25 24 24 24 24 24 24 24 25 25 26 26 26 26 27 27 27 27 28 28 28 29 29 29 29 30 30 30 30 30 30
24 23 22 22 22 23 23 23 24 24 25 25 26 25 25 25 25 25 24 25 26 26 27 27 27 28 28 28 28 28 28 28 28 29 30 30 30 30 30 30 30 30 30
24 23 23 23 23 23 23 24 24 24 25 25 25 26 26 25 25 25 26 26 27 28 28 28 28 29 29 29 29 30 30 29 29 30 31 31 31 31 31 31 31 31 31
25 25 24 24 24 24 24 24 24 24 25 25 25 25 26 26 26 26 26 26 27 28 29 29 29 29 30 30 30 30 30 30 30 31 31 31 31 31 31 31 31 31 31
25 25 25 25 25 25 25 25 25 25 26 26 26 26 26 26 26 26 26 27 28 29 29 29 30 30 30 30 30 30 30 31 31 31 31 31 31 31 31 31 32 31 31
25 25 25 25 25 25 25 25 26 26 26 27 27 27 27 27 27 28 28 28 29 29 30 30 31 31 31 31 31 31 32 32 32 33 32 31 31 32 32 32 32 32 32
25 25 25 25 25 25 25 26 27 27 27 28 28 28 28 28 28 28 29 30 30 30 30 31 31 31 31 32 32 33 33 32 33 33 33 32 32 32 32 33 33 33 33
25 25 25 25 25 25 26 27 27 28 28 28 28 29 29 29 29 29 30 30 30 31 31 32 32 32 32 32 33 34 34 33 33 33 32 33 33 33 33 33 34 33 33
26 25 25 25 25 26 26 27 28 28 28 29 29 29 30 29 29 29 30 30 30 31 32 32 32 33 33 34 34 34 34 34 33 33 33 33 34 33 34 34 34 34 34
26 25 26 26 26 27 28 28 29 29 29 30 30 30 29 29 30 30 30 31 31 32 32 33 33 33 34 35 35 34 34 34 34 34 34 35 35 34 34 34 34 34 34